{"data":{"norad_id":41852,"epoch":"2026-05-25T02:42:35.716896Z","epoch_age_seconds":64967,"freshness":"FRESH","line1":"1 41852U 16067E   26145.11291339  .00006892  00000+0  28766-3 0  9993","line2":"2 41852  98.0717  13.5316 0002855 188.6640 171.4547 15.24020783522556","mean_motion":15.24020783,"eccentricity":0.0002855,"inclination_deg":98.0717,"raan_deg":13.5316,"arg_perigee_deg":188.664,"mean_anomaly_deg":171.4547,"bstar":0.00028766,"rev_number":52255,"period_min":94.486900445373,"perigee_km":491.76549102197,"apogee_km":495.68932559911,"semimajor_km":6871.8644083105,"source":"CELESTRAK","updated_at":"2026-05-25T13:38:25.528936Z"}}